This is the latest recevied weather packets stored in our database for station/object KE4AMH. If no packets are shown the sender has not sent any weather packets the latest 10 day(s).
| Time | Temp. | Humidity | Pressure | Rain* | Wind** | Luminosity | Snow |
|---|---|---|---|---|---|---|---|
| 1778081371 | 22.22° C | 75% | 1015.2 hPa | 0 mm | - | 300 W/m² | - |
| 1778081068 | 22.22° C | 75% | 1015.2 hPa | 0 mm | - | 307 W/m² | - |
| 1778080766 | 22.22° C | 77% | 1015 hPa | 0 mm | - | 318 W/m² | - |
| 1778080463 | 22.22° C | 77% | 1015.1 hPa | 0 mm | - | 361 W/m² | - |
| 1778080161 | 21.67° C | 77% | 1015.4 hPa | 0 mm | - | 388 W/m² | - |
| 1778079856 | 21.67° C | 78% | 1015 hPa | 0 mm | - | 235 W/m² | - |
| 1778079554 | 21.11° C | 79% | 1015.1 hPa | 0 mm | - | 149 W/m² | - |
| 1778079250 | 21.67° C | 78% | 1015.2 hPa | 0 mm | - | 127 W/m² | - |
| 1778078948 | 21.67° C | 78% | 1014.9 hPa | 0 mm | - | 220 W/m² | - |
| 1778078644 | 21.11° C | 79% | 1014.9 hPa | 0 mm | - | 218 W/m² | - |
| 1778078343 | 21.11° C | 79% | 1014.7 hPa | 0 mm | - | 199 W/m² | - |
| 1778078039 | 20.56° C | 79% | 1015.1 hPa | 0 mm | - | 174 W/m² | - |
| 1778077737 | 20.56° C | 80% | 1015.1 hPa | 0 mm | - | 164 W/m² | - |
| 1778077435 | 20.56° C | 80% | 1014.5 hPa | 0 mm | - | 161 W/m² | - |
| 1778077133 | 20.56° C | 80% | 1014.4 hPa | 0 mm | - | 170 W/m² | - |
| 1778076831 | 20° C | 80% | 1014.5 hPa | 0 mm | - | 168 W/m² | - |
| 1778076529 | 20° C | 80% | 1014.6 hPa | 0 mm | - | 159 W/m² | - |
| 1778076225 | 20° C | 80% | 1014.6 hPa | 0 mm | - | 98 W/m² | - |
| 1778075922 | 20° C | 80% | 1014.5 hPa | 0 mm | - | 103 W/m² | - |
| 1778075619 | 20° C | 80% | 1014.3 hPa | 0 mm | - | 99 W/m² | - |
| 1778075315 | 20.56° C | 79% | 1014.5 hPa | 0 mm | - | 122 W/m² | - |
| 1778075012 | 20° C | 79% | 1014.4 hPa | 0 mm | - | 146 W/m² | - |
| 1778074709 | 20° C | 79% | 1014.5 hPa | 0 mm | - | 131 W/m² | - |
| 1778074405 | 20° C | 80% | 1014.4 hPa | 0 mm | - | 122 W/m² | - |
| 1778074102 | 20° C | 79% | 1014.7 hPa | 0 mm | - | 91 W/m² | - |
* Rain latest hour (hover to see other rain measurements)
** Current wind speed in m/s (hover to see current wind gust speed)